Theta_e
314 313 315 318 322 325 326 326 322 321 319 311 312 315 316 322 321 319 318 319 319 320 319 317 320 323 322 322 323 321 321 326 326 323 329 338 339 340 340 340 341 341 342 341 341 340 340 340 341 341 340 340 339 339 340 340 339 340 339 339 338 336 335 334 333 330 326 328 331 331 330 328 321 321 328 330 330 330 330 330 330 329 329 329 329 331 333 333 333 333 331 329 328 328 327 326 325
315 315 319 321 324 326 326 326 320 315 313 309 311 317 318 320 320 319 319 319 322 321 319 318 319 322 322 321 321 320 325 327 327 329 333 337 338 340 339 339 340 341 342 341 341 340 341 340 340 341 340 340 337 337 338 339 339 339 339 339 338 335 334 333 335 332 328 329 331 331 329 327 322 321 325 328 330 330 329 329 329 329 329 329 330 331 333 333 333 331 328 327 327 326 326 326 325
317 318 322 324 326 325 325 324 317 311 310 309 311 318 319 319 319 320 320 321 322 320 320 319 320 322 320 321 321 320 327 327 327 331 333 337 338 339 339 340 340 342 342 342 342 341 342 340 340 340 340 340 338 336 336 338 339 339 338 338 336 333 332 333 335 333 329 330 331 330 328 325 323 325 325 327 330 329 329 329 329 330 329 330 330 332 333 333 333 329 326 326 326 326 325 325 323
318 319 323 326 327 324 324 323 318 311 309 308 311 318 319 319 320 320 321 321 320 319 320 320 321 323 321 323 322 320 328 329 330 332 334 338 338 338 339 340 340 341 342 342 342 341 341 339 340 340 339 340 339 337 336 336 338 338 338 337 334 330 332 333 334 333 329 330 332 329 326 323 320 323 326 328 329 329 329 328 328 329 329 330 331 332 333 332 331 328 328 327 327 327 326 324 321
320 321 321 326 328 324 323 321 318 314 311 311 313 317 319 319 319 321 321 319 318 319 320 320 322 323 321 323 321 322 329 329 331 334 336 338 338 338 338 340 341 341 342 342 341 342 340 337 339 340 340 340 339 338 336 335 336 338 337 335 331 330 332 333 334 334 330 331 332 328 324 322 316 316 321 327 329 328 329 328 328 328 329 331 331 332 332 331 330 329 330 329 328 326 325 323 320
323 324 322 324 326 323 322 318 314 314 315 317 316 317 318 318 319 321 320 319 318 318 318 320 321 321 321 324 324 326 329 329 331 335 337 338 337 338 338 340 341 341 342 342 341 343 339 335 338 339 340 340 339 339 337 334 335 337 335 332 330 331 332 333 335 333 332 332 332 328 324 321 316 313 315 324 329 328 328 328 328 328 329 331 332 332 331 331 331 331 330 328 326 325 324 322 319
325 325 323 323 323 323 321 315 314 316 318 319 318 318 317 318 319 320 319 319 318 317 317 318 319 319 322 324 324 327 330 331 332 335 337 337 336 337 338 340 341 341 342 342 342 343 339 335 338 339 339 340 339 339 337 332 334 335 331 330 330 331 332 333 334 333 333 333 331 329 325 321 317 313 310 319 328 329 328 328 328 328 329 330 331 331 332 332 331 330 328 326 325 324 323 321 319
323 324 324 323 323 322 319 316 316 318 318 318 319 318 317 318 319 319 319 318 318 317 317 317 319 319 321 321 324 328 328 331 333 334 336 336 336 336 337 340 341 341 342 342 342 342 338 335 338 339 339 340 338 339 337 329 329 332 328 330 330 330 333 334 333 333 333 333 331 329 326 323 319 313 307 315 327 329 328 328 327 329 330 331 331 331 332 331 330 328 326 325 324 324 322 320 320
322 323 323 323 323 320 317 316 317 319 319 318 318 318 318 318 318 318 318 318 318 317 318 318 319 319 318 318 324 327 327 330 332 333 335 336 337 337 337 339 340 340 342 343 342 342 339 336 338 339 339 340 339 338 338 330 325 328 330 331 330 331 333 334 333 333 333 333 332 329 327 323 321 315 306 311 324 329 328 328 327 328 329 330 331 330 330 330 328 326 326 325 324 323 321 320 321
321 322 322 322 320 316 313 314 317 319 320 318 318 317 318 318 318 319 318 318 317 317 319 319 318 317 317 318 322 326 328 329 331 333 335 336 336 337 338 339 341 340 342 343 343 342 339 337 337 338 339 340 340 338 339 334 327 327 332 333 331 332 333 333 333 333 334 333 331 330 327 324 320 315 306 307 321 329 328 328 327 327 328 329 329 328 328 327 326 325 324 324 324 322 320 320 322
322 320 321 320 315 312 311 313 317 319 319 318 318 317 317 317 317 318 318 317 316 317 319 318 317 317 316 318 322 324 327 328 330 334 335 336 337 337 338 340 341 341 342 342 343 343 340 338 337 338 339 339 340 339 339 337 333 330 333 335 333 333 332 333 333 332 333 333 331 330 327 324 321 315 308 305 316 325 327 328 327 326 326 326 326 326 325 325 324 324 323 323 323 321 319 321 322
323 320 321 318 314 314 314 315 316 320 319 317 317 317 317 317 317 317 317 317 316 317 318 318 318 317 317 318 321 323 326 328 331 334 335 335 336 338 339 341 341 341 342 342 343 343 341 339 338 338 339 339 339 339 338 338 336 334 334 335 335 333 332 333 332 332 333 333 332 330 327 324 321 316 310 306 311 319 324 326 326 326 325 325 324 324 323 323 323 323 323 322 320 319 319 321 323
323 322 320 317 318 319 316 316 317 319 318 318 318 316 317 316 317 316 316 316 316 316 317 318 318 317 317 318 321 322 324 329 333 334 334 335 336 338 339 341 341 341 342 343 343 342 342 341 339 339 339 339 338 338 338 338 338 336 334 335 336 334 332 333 332 333 333 333 332 331 328 324 321 318 313 309 310 314 318 321 325 325 325 324 322 319 318 316 316 316 317 317 316 317 319 321 322
324 323 321 319 321 320 317 317 317 316 316 319 317 316 316 316 316 316 316 315 315 316 316 317 316 317 317 318 319 320 324 331 334 333 334 335 335 336 338 340 341 342 341 342 342 342 342 341 341 340 339 339 339 338 338 338 338 337 336 336 336 334 333 333 333 332 333 333 332 331 329 325 322 320 317 313 310 310 312 317 322 323 322 319 315 311 308 306 305 305 306 308 312 316 318 321 321
324 322 321 321 319 318 317 317 318 315 315 318 316 316 316 315 315 315 316 315 315 315 315 316 316 317 316 317 320 321 329 333 332 332 333 334 334 336 337 339 341 341 341 342 342 341 341 341 341 341 340 340 339 339 339 339 338 338 337 337 337 335 333 333 333 332 333 333 332 331 329 326 323 322 320 318 313 308 307 311 314 315 314 310 306 304 302 301 300 300 300 303 308 314 318 320 320
323 322 320 318 315 316 317 318 318 315 316 318 315 316 316 315 314 315 315 314 315 315 315 316 316 316 316 317 321 328 333 332 331 332 333 333 334 335 336 338 339 339 340 340 340 340 341 341 341 340 340 340 340 339 339 339 338 338 338 337 337 336 334 333 333 332 332 333 332 331 330 327 323 321 321 320 317 313 309 307 306 306 304 302 302 301 300 300 300 300 300 301 305 311 316 318 318
321 323 319 316 315 316 317 319 317 315 318 317 314 315 316 315 314 314 314 313 314 315 315 315 316 315 316 315 317 329 332 329 330 331 332 333 334 335 336 337 337 338 338 338 338 339 339 340 340 340 340 340 340 339 339 339 338 338 338 337 337 336 335 333 333 333 332 332 332 331 330 327 323 322 321 320 319 317 315 311 307 304 302 301 301 300 300 300 300 300 300 301 304 308 312 314 314
320 321 317 314 316 318 319 319 318 318 319 316 315 315 316 316 314 314 314 314 314 315 315 315 316 314 316 314 315 326 330 328 330 331 332 333 333 335 336 337 336 336 336 337 336 337 338 339 340 339 339 339 340 340 340 340 339 339 338 337 337 337 335 334 333 333 332 332 331 331 330 327 326 325 322 320 320 318 317 315 312 308 307 305 304 303 302 301 300 300 300 301 304 307 310 311 311
320 320 317 316 319 319 319 318 318 318 318 316 316 315 315 316 316 315 314 315 314 315 315 315 316 315 316 314 315 325 330 330 330 331 333 333 334 334 335 335 336 336 335 336 335 336 337 338 339 338 338 339 339 339 339 339 339 338 338 338 337 337 336 335 334 333 333 332 331 331 331 329 329 327 324 322 320 319 318 316 314 313 312 311 308 306 304 303 302 302 301 301 303 307 311 312 312
319 320 317 318 320 319 318 317 317 316 317 317 316 315 316 316 316 316 314 315 316 315 316 316 316 315 316 314 316 324 329 330 330 331 332 333 334 334 335 334 335 335 335 335 335 335 336 336 337 337 338 338 338 338 339 339 339 339 338 338 338 337 336 335 334 334 334 333 332 332 332 331 330 328 326 323 320 319 317 316 315 315 314 313 312 309 307 306 304 302 302 304 307 310 311 312 312
318 317 317 317 318 318 317 316 316 314 315 316 317 315 315 316 315 315 315 315 316 316 316 316 317 316 317 315 316 323 328 330 330 331 332 333 334 334 334 334 334 335 335 335 335 335 335 335 336 336 337 337 337 338 338 338 338 339 338 338 338 337 337 336 335 335 335 334 333 333 332 332 330 329 327 324 322 320 317 315 315 314 313 312 313 311 309 307 306 305 306 309 311 311 311 311 310
317 315 316 317 316 317 316 315 314 313 314 315 316 315 315 315 315 315 315 315 316 317 317 317 317 317 318 316 317 321 326 330 330 331 333 333 333 334 335 334 334 335 335 335 335 334 333 334 334 335 335 335 337 337 337 337 336 337 338 339 338 338 337 336 336 335 335 334 334 333 333 332 330 329 327 325 325 322 318 317 316 315 313 313 313 312 311 311 311 311 312 312 311 310 310 309 310
317 316 315 315 316 317 315 314 313 312 315 315 316 315 315 315 315 315 315 316 316 316 316 317 316 316 318 318 318 320 323 328 329 330 332 333 333 333 333 334 334 334 334 334 334 334 333 333 333 333 334 334 335 335 335 334 334 336 337 338 338 338 337 336 337 335 336 335 333 334 333 332 330 328 327 327 327 324 321 320 319 317 316 315 315 314 315 316 315 314 313 312 311 310 310 310 311
316 316 316 315 315 315 314 313 312 312 315 315 314 314 315 315 316 316 315 316 316 316 316 316 315 315 317 318 319 320 322 326 328 329 330 332 333 332 332 332 334 334 334 333 333 333 333 332 332 333 333 333 334 334 333 333 335 336 337 337 337 337 336 336 336 335 335 334 333 334 333 332 331 329 328 328 328 326 324 323 320 319 318 318 318 317 317 316 315 315 315 313 312 311 311 311 310
316 316 316 315 315 314 313 312 312 313 313 313 313 314 315 315 315 314 315 316 316 316 315 315 315 314 314 316 318 319 322 325 326 327 329 330 331 332 332 332 332 332 332 332 332 332 331 331 331 332 333 332 332 333 332 332 335 336 337 337 336 336 336 335 336 336 335 335 333 332 332 332 331 330 329 328 328 327 326 324 321 320 320 320 319 319 317 316 316 316 315 313 312 312 311 310 309
316 317 316 315 316 314 313 313 313 313 314 313 314 315 316 314 313 314 315 316 316 316 315 315 315 314 314 315 316 317 319 323 324 325 327 329 330 332 333 333 332 332 331 331 332 332 331 330 330 332 332 332 331 332 331 331 333 335 336 335 335 336 335 334 336 336 335 335 334 332 331 332 331 331 330 329 329 327 326 324 322 321 321 320 320 319 317 317 317 315 314 312 312 313 312 310 309
316 316 316 316 315 315 314 315 314 314 314 313 314 316 316 313 313 315 316 316 315 315 315 315 315 315 315 315 315 317 318 320 323 324 326 327 329 330 332 334 333 332 331 331 332 332 331 330 329 330 331 331 330 330 330 330 331 333 334 334 335 336 336 335 335 336 335 335 334 333 331 332 332 331 330 330 329 328 326 325 323 321 321 320 320 318 317 316 316 316 314 312 312 313 311 310 309
316 316 316 316 316 316 315 315 315 315 315 313 314 316 316 315 314 316 317 314 314 315 315 316 315 315 316 315 316 316 317 318 320 322 325 327 327 328 329 331 331 330 330 330 331 331 331 329 328 329 330 329 328 328 329 329 329 330 332 333 334 335 335 335 334 335 335 335 335 333 332 332 332 331 330 330 329 329 327 325 324 322 321 320 320 319 317 316 316 316 313 312 313 312 309 309 308
316 316 317 316 316 317 316 316 315 315 315 314 315 315 315 317 315 317 317 314 315 315 316 316 316 316 316 316 316 316 317 318 318 320 322 325 326 325 325 327 327 328 328 329 330 330 329 328 327 328 328 327 326 326 326 327 328 329 330 332 333 333 334 334 333 334 334 335 335 334 332 332 332 331 331 330 330 329 328 326 324 323 322 321 321 320 318 316 317 316 313 313 313 310 308 308 307
316 316 317 317 316 316 317 317 315 316 315 314 315 313 314 318 318 317 317 315 315 315 316 317 316 317 317 317 317 316 317 317 318 319 319 321 322 323 323 324 325 326 326 327 327 328 327 326 326 326 326 325 324 324 325 326 327 328 328 330 331 332 333 333 333 334 334 334 334 333 333 332 332 331 331 330 330 329 328 326 325 324 323 322 322 321 317 316 317 317 316 312 310 308 306 305 305
317 316 316 317 315 315 317 316 315 317 314 314 315 312 314 318 319 317 315 314 315 316 317 317 317 318 317 317 317 317 317 318 318 318 318 319 319 321 322 322 323 324 324 324 325 325 324 324 324 324 323 323 322 323 324 324 326 327 328 328 330 330 331 332 332 333 333 333 333 333 332 332 332 331 331 330 329 328 327 327 325 324 323 323 322 320 318 317 317 316 316 312 307 305 302 301 302
318 314 313 317 315 314 318 316 315 317 314 314 316 313 315 318 318 315 314 314 315 316 317 317 317 318 317 317 317 317 317 318 318 318 318 318 318 319 320 321 322 322 322 323 323 323 323 322 322 322 322 321 321 321 322 322 322 324 326 327 328 329 328 329 331 331 332 332 332 332 332 331 331 331 331 331 329 328 327 327 326 325 324 322 321 320 317 315 315 315 313 313 308 303 300 298 299
317 314 313 316 314 314 316 315 315 316 315 315 315 315 316 318 318 315 313 314 315 316 317 318 318 318 318 317 317 317 317 317 318 318 317 317 318 318 318 320 320 321 321 321 321 321 321 320 320 320 320 319 319 319 318 318 318 319 324 326 326 327 326 327 328 329 330 330 331 332 332 332 331 331 331 330 330 329 328 328 327 326 324 321 320 320 317 312 313 315 312 310 309 305 302 299 298
315 315 314 316 316 313 313 315 315 314 315 316 316 316 317 317 318 317 315 315 316 316 317 318 318 318 318 318 318 317 317 317 317 318 317 317 317 317 317 317 318 320 319 320 320 320 320 319 318 318 318 318 317 318 317 316 317 319 322 324 323 324 325 325 326 329 330 330 330 331 332 332 332 331 330 329 329 329 328 328 328 326 323 321 319 319 317 312 311 315 312 307 307 308 305 302 300
314 315 313 313 315 312 312 315 315 315 315 316 316 316 317 317 317 317 317 317 316 317 317 317 317 318 318 318 319 318 318 318 318 319 318 316 316 317 316 316 316 318 318 319 320 320 319 319 318 317 317 317 317 318 317 316 317 319 320 321 322 323 323 324 325 328 331 331 330 330 331 332 331 331 330 328 327 328 328 328 327 326 323 320 318 317 317 313 310 312 312 308 306 306 305 303 302
314 316 314 312 313 312 313 315 314 315 315 315 316 315 316 316 317 317 317 318 317 317 318 317 317 317 317 318 318 319 319 319 320 320 318 317 316 316 316 315 316 316 317 318 318 319 319 319 318 317 317 317 317 318 316 315 316 317 318 319 320 321 322 323 324 326 329 329 329 329 330 331 330 330 330 328 327 329 329 328 326 325 323 320 318 317 316 314 312 312 311 309 307 303 301 301 302
314 315 314 313 313 312 315 317 314 314 315 315 316 316 316 317 316 317 317 317 317 317 317 318 318 317 318 318 318 319 319 320 323 321 318 317 316 315 315 315 315 316 316 317 318 319 319 318 318 317 317 317 317 317 315 314 314 316 317 318 319 320 322 324 324 325 326 327 328 328 329 329 328 329 329 328 328 329 328 327 325 323 321 319 319 319 318 316 314 313 310 309 308 304 298 296 300
314 314 314 314 314 314 316 317 314 314 314 314 316 316 317 317 317 317 316 317 317 317 318 318 318 318 318 319 319 320 319 322 324 321 318 317 315 315 314 314 314 315 316 316 317 318 318 318 317 317 317 316 317 316 314 313 313 316 317 317 318 318 321 324 324 325 325 326 327 328 328 327 327 329 329 328 328 329 327 326 324 322 320 319 319 318 317 316 313 311 310 307 305 304 300 296 298
315 315 315 314 315 315 315 315 314 314 314 314 316 316 316 316 316 316 316 316 317 317 317 318 318 318 318 318 319 320 320 321 323 321 319 317 315 315 314 313 314 314 315 315 316 317 317 317 317 317 317 316 316 314 314 313 312 315 317 317 318 317 320 323 323 324 325 326 326 326 326 326 326 327 328 328 327 327 326 325 324 322 320 319 318 316 314 313 311 310 311 309 303 301 299 297 299
316 316 314 314 317 315 312 314 315 314 314 314 316 316 316 317 316 317 317 317 317 318 318 319 319 319 319 319 319 320 320 321 321 321 320 318 316 315 313 313 313 313 314 315 316 316 317 317 316 317 317 315 314 313 313 312 313 315 316 317 317 316 319 321 322 323 324 323 323 323 324 324 324 325 326 327 326 326 325 326 324 322 321 319 318 316 313 312 311 310 310 310 306 300 296 295 299
316 318 315 314 317 315 313 314 315 315 315 315 316 315 315 317 318 319 319 319 319 319 319 319 320 320 320 320 321 320 320 321 321 321 320 318 316 315 314 313 313 313 314 315 315 316 316 316 316 316 316 315 314 313 312 313 314 315 315 315 315 315 317 319 320 321 321 320 321 322 323 323 323 324 325 325 325 324 324 324 323 323 321 319 317 316 315 314 314 314 312 310 308 306 299 295 297
315 319 318 315 315 317 317 317 316 313 313 317 318 313 311 315 318 319 319 319 319 319 319 318 319 320 320 320 321 321 321 321 320 320 319 319 317 315 314 313 313 313 313 314 315 315 316 316 315 315 316 315 314 313 312 313 314 313 314 314 313 314 315 317 318 319 319 319 320 322 323 323 323 323 324 323 322 322 322 323 323 322 321 318 316 316 316 316 315 315 314 310 308 310 306 298 296
312 318 320 317 317 318 317 318 316 312 313 317 317 312 311 313 314 316 317 317 317 318 319 319 319 319 320 321 321 321 321 321 321 320 318 318 317 316 315 313 313 313 313 314 315 315 315 315 315 315 315 314 313 313 311 312 312 312 313 314 314 314 314 315 317 318 318 318 320 321 322 323 323 323 323 322 321 320 321 322 322 321 321 319 317 315 315 315 314 313 312 311 308 307 307 302 297
315 318 319 318 318 319 319 318 316 315 317 317 317 316 315 314 315 316 317 316 317 318 318 319 319 320 320 320 321 321 321 321 321 321 318 317 317 316 315 314 313 313 313 314 314 315 315 315 315 315 314 313 312 312 311 311 312 312 313 314 314 315 315 315 316 316 317 318 319 319 321 322 322 322 322 321 320 319 319 320 320 319 319 318 316 315 315 315 314 311 309 310 308 305 306 305 301
318 318 318 319 319 320 320 319 316 318 319 316 318 320 317 315 316 316 319 316 316 318 318 318 318 320 321 320 320 320 319 320 319 319 318 317 317 316 315 314 313 312 313 314 314 314 314 314 314 314 314 313 312 311 311 311 311 311 312 313 314 314 315 315 315 315 316 317 318 318 319 321 321 320 321 320 320 319 319 319 319 318 317 315 314 314 316 316 314 312 309 308 306 304 305 305 303
317 317 318 319 319 319 319 319 317 318 318 316 320 320 314 312 312 315 319 316 316 317 316 318 319 320 322 321 321 320 318 319 318 317 316 317 316 314 313 313 312 312 312 313 314 314 314 314 314 314 313 312 312 311 310 310 311 311 312 312 313 314 315 315 314 315 316 316 317 317 318 319 319 320 320 320 319 319 319 317 317 318 318 316 314 312 314 316 314 311 310 308 306 305 305 305 304
317 318 319 319 319 319 318 318 317 316 315 316 320 319 313 311 311 314 318 317 317 318 315 317 319 320 322 321 321 320 318 319 318 316 315 314 313 311 311 311 311 311 312 313 313 313 313 313 313 314 313 312 311 310 310 310 311 312 312 312 313 314 314 314 314 314 314 314 315 316 317 318 319 319 319 319 319 319 319 317 316 317 318 318 314 312 314 316 313 310 308 307 306 306 306 305 304
319 319 317 316 317 318 317 318 318 315 314 316 318 318 315 311 311 314 317 316 316 317 316 316 317 319 322 322 321 319 318 318 318 317 316 314 311 310 310 310 310 311 311 312 313 313 313 313 313 313 312 311 310 309 309 310 311 312 312 312 313 313 313 313 314 313 311 312 315 316 316 317 318 318 318 319 319 319 318 316 316 316 317 317 314 312 313 314 312 309 307 306 306 306 306 305 303
319 317 315 314 314 315 316 318 319 316 314 316 316 318 318 313 313 315 316 316 316 316 317 318 317 318 320 322 322 321 320 319 317 318 317 315 313 312 311 310 310 310 311 311 312 312 312 312 312 313 312 311 309 308 308 309 310 311 312 312 312 312 313 313 314 313 311 312 315 316 315 316 317 317 317 318 318 318 317 316 316 316 316 316 314 312 311 311 309 307 305 305 306 307 306 304 303
317 316 315 313 312 314 316 317 317 315 315 315 314 316 317 314 314 317 316 316 317 317 317 319 319 318 319 320 321 321 321 319 318 318 318 317 316 315 313 311 310 310 310 311 312 312 312 312 312 312 312 311 309 308 308 308 309 310 311 311 311 311 312 312 312 312 311 312 314 316 316 316 317 317 317 318 318 318 318 317 316 316 316 314 312 310 309 308 307 306 305 306 306 306 306 304 303
317 316 316 314 311 312 314 314 314 314 315 313 313 316 315 313 315 317 317 316 317 317 317 317 318 318 318 319 319 319 319 318 318 318 318 317 317 316 315 312 311 311 311 311 312 312 311 311 311 311 311 311 309 307 307 307 307 308 309 310 311 310 310 311 311 310 310 312 314 315 316 317 317 317 318 318 318 318 317 317 316 315 313 311 309 307 307 307 305 304 305 306 306 305 305 303 302
317 318 318 317 314 312 312 313 314 314 315 315 315 316 315 314 315 316 316 316 316 316 317 318 319 319 319 319 319 319 319 318 318 317 317 317 316 316 314 312 311 311 311 311 311 311 311 311 311 311 311 311 310 308 307 306 306 306 307 309 311 310 309 310 310 310 310 312 313 314 314 315 314 315 317 317 317 317 316 316 315 313 310 308 306 306 305 305 304 304 304 304 304 304 303 302 301
317 318 319 318 317 315 313 314 314 313 314 314 315 316 314 313 314 315 315 314 315 315 316 317 319 320 322 324 326 325 322 320 319 319 318 317 316 314 312 312 311 311 311 311 311 311 311 311 311 311 311 311 311 309 307 306 305 306 306 307 309 310 309 309 309 310 311 311 312 312 312 312 309 310 313 315 315 315 314 314 313 312 311 308 306 305 304 302 302 302 302 302 302 302 302 300 300
318 318 317 316 316 315 313 314 315 315 315 314 313 314 313 311 312 315 315 315 315 315 315 316 317 319 322 326 329 329 324 321 320 319 318 317 315 313 312 311 311 310 311 311 311 311 311 310 311 310 310 310 310 309 307 306 305 306 306 306 307 308 309 309 309 310 311 311 311 310 310 310 308 307 310 312 313 313 312 311 309 309 309 308 306 304 301 299 299 300 300 300 301 301 300 299 298
316 317 317 316 316 315 313 314 315 316 317 316 314 313 313 312 312 313 314 315 315 315 315 316 315 316 319 321 325 327 323 322 323 320 318 316 314 313 311 310 310 310 310 311 311 311 310 310 310 310 310 310 310 309 307 306 305 306 306 305 305 306 307 308 308 309 309 309 310 310 309 309 308 308 309 310 311 311 310 308 306 306 306 306 305 301 298 296 297 298 298 298 299 299 298 298 297
314 315 316 316 317 315 314 315 314 314 315 316 316 314 313 314 314 314 314 314 315 314 315 316 316 317 318 320 324 327 324 323 324 323 320 317 314 313 311 310 309 309 309 310 310 310 310 310 310 310 310 309 309 309 307 305 305 305 305 305 305 305 306 307 308 308 308 309 310 310 310 309 308 308 308 308 309 310 309 307 305 303 303 303 301 297 295 296 296 297 297 297 297 297 297 297 296
314 313 315 316 316 315 315 316 315 314 315 315 315 314 312 313 315 315 315 315 315 315 315 316 318 318 319 322 326 326 324 321 322 322 321 317 314 312 310 309 308 308 309 309 310 310 310 310 310 309 309 309 309 309 308 306 304 304 304 304 304 305 305 306 307 309 309 310 310 309 309 309 308 306 305 305 307 307 306 304 302 299 299 299 298 295 294 296 296 296 296 296 296 296 296 296 294
315 314 314 315 316 316 316 317 316 315 316 315 315 315 314 314 316 315 315 315 314 316 317 317 318 319 320 326 328 325 323 321 320 320 319 317 313 310 309 308 307 307 308 308 309 310 310 309 309 309 309 309 308 308 308 306 305 304 303 303 304 304 304 304 305 306 306 307 309 308 307 307 305 304 304 304 305 305 303 301 298 295 294 294 294 293 293 294 295 295 296 296 296 295 294 292 291
Wind_Speed
4 2 1 1 2 4 5 4 3 2 2 1 4 2 5 4 3 3 4 3 2 4 3 2 1 2 1 4 6 5 6 7 7 3 2 5 11 14 11 12 12 11 12 11 10 13 11 11 11 11 11 10 10 10 10 11 12 12 12 13 12 12 12 12 13 14 14 14 15 14 15 15 15 17 18 18 18 18 18 17 17 17 17 17 17 17 17 16 16 16 16 18 19 19 19 19 18
2 2 1 2 4 5 2 2 3 2 2 3 4 2 6 5 3 4 4 3 3 5 3 2 1 1 2 5 5 3 4 8 7 6 6 11 12 11 11 11 12 12 12 11 11 12 11 11 12 11 11 11 10 10 10 10 11 12 12 12 12 12 12 12 12 13 13 13 14 14 15 15 15 17 18 18 18 18 18 17 17 17 17 17 17 17 16 16 17 17 18 18 18 19 19 19 19
2 2 2 3 5 6 2 3 3 1 1 3 5 4 6 5 4 4 4 5 7 6 4 3 2 2 4 4 3 3 3 5 7 9 8 13 11 10 11 11 13 13 12 11 11 12 11 11 12 12 11 11 11 10 10 10 11 11 12 11 11 12 11 11 12 12 12 13 13 14 15 15 16 17 18 18 18 17 17 17 17 17 17 18 18 18 16 17 18 18 18 18 19 19 19 19 20
1 2 4 5 4 5 4 3 2 2 1 3 4 6 5 4 5 6 7 6 6 4 3 3 3 2 5 4 3 3 3 5 6 7 8 9 9 13 12 12 14 12 12 11 11 11 11 12 13 12 12 11 11 11 10 10 10 11 11 11 12 12 11 11 11 12 12 12 13 14 14 14 15 16 17 18 18 17 17 17 17 18 17 18 18 17 17 17 18 18 18 19 19 19 19 19 20
1 3 5 6 4 2 3 2 2 2 3 3 2 6 5 4 7 7 7 6 5 3 2 3 2 3 3 4 4 2 4 6 5 6 9 9 10 14 12 13 14 12 12 11 11 11 11 14 13 12 11 11 11 10 10 10 10 11 11 11 12 12 11 11 11 12 11 11 12 13 13 14 14 15 16 18 18 17 17 17 18 18 18 18 18 17 17 18 18 19 18 18 18 18 18 19 20
0 3 5 5 3 1 3 2 1 2 5 5 3 6 5 5 7 8 8 6 4 1 1 2 1 1 2 1 1 3 4 4 7 5 8 11 10 12 12 13 13 13 12 11 12 10 12 15 13 12 11 11 11 10 9 10 11 12 11 12 12 12 11 11 11 11 11 11 11 12 13 13 13 14 15 17 18 17 17 17 18 18 18 18 17 17 17 18 18 18 18 17 17 17 18 19 21
2 3 3 4 2 1 4 1 1 3 5 5 4 5 6 7 8 9 9 6 4 1 2 2 2 4 1 3 2 4 5 4 7 5 8 12 10 11 13 13 12 13 12 11 11 10 13 16 13 12 12 11 11 9 8 9 11 13 12 12 13 12 11 11 11 11 11 11 11 11 12 12 12 13 14 17 18 17 17 17 18 18 18 18 17 17 17 17 17 17 17 17 17 17 18 20 23
4 2 1 3 3 2 3 1 2 3 4 3 4 4 5 8 8 9 8 5 4 4 4 4 3 5 1 2 1 5 6 5 7 7 9 11 10 11 13 13 13 14 13 11 11 10 14 15 14 13 12 12 11 10 8 8 11 14 13 12 12 12 11 10 10 10 10 11 10 11 11 11 11 11 13 17 18 18 17 18 18 17 17 17 16 16 17 17 16 16 16 16 17 17 18 21 24
4 3 1 3 3 2 2 1 2 3 4 4 4 4 4 6 7 7 7 4 3 4 3 4 4 3 2 3 3 6 7 6 7 8 9 9 9 10 13 13 13 14 13 13 11 11 15 16 14 13 13 12 12 11 9 9 12 14 13 12 12 11 11 10 10 10 10 10 10 10 11 11 11 11 13 16 18 18 17 18 17 16 16 15 15 16 17 17 16 16 16 16 17 17 19 20 22
4 2 2 3 3 2 2 1 2 3 5 4 4 5 5 6 6 5 6 4 3 3 3 3 3 3 1 3 4 5 8 9 9 9 8 8 9 9 11 12 12 14 13 13 12 11 15 16 16 15 13 12 12 11 11 10 12 14 12 12 12 11 10 10 10 9 10 10 10 10 10 11 11 11 13 15 17 18 17 17 17 16 15 15 15 16 16 16 16 16 16 16 16 17 19 20 21
4 2 2 3 3 3 1 2 3 3 5 4 5 6 6 7 6 5 5 3 3 3 4 3 4 3 3 2 4 5 9 10 9 10 10 9 8 9 10 11 12 13 13 14 12 12 14 16 17 15 14 13 12 12 11 11 11 12 11 11 11 11 10 10 10 9 10 10 10 9 10 11 11 12 13 15 16 17 17 17 17 16 15 15 16 17 17 16 16 16 16 16 16 17 18 19 20
4 4 3 4 4 1 2 2 3 4 5 5 6 7 6 7 7 6 6 4 4 4 4 6 2 1 5 2 3 7 10 10 9 11 12 9 9 9 10 10 12 12 12 13 12 13 13 15 16 15 15 13 13 12 12 12 12 12 12 11 11 11 11 10 10 9 9 10 10 10 10 11 11 12 13 14 15 16 17 17 17 17 16 16 16 16 16 15 15 15 15 15 16 17 18 19 20
3 4 5 4 2 1 2 2 2 2 3 5 6 8 7 8 8 6 6 5 5 6 4 5 0 3 4 2 5 7 10 11 10 12 12 10 10 10 10 10 11 12 12 12 12 12 12 13 15 15 15 14 13 14 13 13 13 13 13 12 12 11 11 10 10 10 10 10 10 10 11 11 11 12 13 14 14 15 16 17 17 17 16 16 16 15 14 14 14 15 15 16 17 18 19 19 19
2 1 4 3 1 2 2 2 1 2 2 6 7 9 8 7 6 4 4 6 5 2 2 2 0 3 4 2 5 6 9 13 11 12 12 10 11 10 11 9 9 11 12 11 11 12 12 12 13 14 15 14 14 14 14 14 14 14 14 13 13 12 11 11 11 10 10 11 11 11 11 11 11 11 12 12 13 14 15 16 17 16 15 15 15 14 15 15 15 16 17 18 19 19 19 19 19
2 1 4 3 1 3 2 2 0 3 2 9 8 10 9 4 3 4 4 5 2 4 3 2 1 2 2 1 3 5 12 15 12 13 12 10 10 10 11 10 8 8 10 10 10 11 12 12 12 14 15 14 15 15 15 15 15 14 15 14 13 13 12 11 11 11 11 11 11 11 11 11 11 11 11 11 12 13 14 15 15 15 14 14 15 15 16 17 17 18 18 19 19 20 20 19 19
3 1 3 4 3 3 3 2 1 3 2 9 7 9 10 5 4 5 1 2 1 4 1 2 3 2 4 3 5 9 14 15 12 13 12 11 10 9 10 10 9 8 8 8 9 11 11 12 13 14 14 14 14 15 15 15 16 15 15 15 14 14 13 13 12 11 11 11 11 11 11 11 11 11 11 11 11 12 13 14 14 14 14 14 15 16 16 17 17 17 18 18 19 19 19 19 19
2 2 4 4 4 3 3 4 2 1 4 9 8 9 9 7 5 3 2 2 3 3 4 3 3 2 3 5 6 8 12 12 12 14 12 12 11 10 10 11 13 11 8 7 8 11 12 11 14 15 12 13 13 14 14 13 16 15 15 15 15 14 14 14 13 12 12 12 11 11 12 12 12 12 11 11 11 11 12 13 14 14 15 16 16 17 17 17 17 18 18 19 19 19 19 19 18
3 4 5 5 4 2 2 3 2 1 2 7 10 10 9 7 7 5 2 5 6 4 6 5 3 3 3 7 7 8 11 11 13 14 13 13 12 12 12 13 14 13 12 12 10 11 14 12 13 14 12 13 13 12 13 12 13 15 15 15 15 15 15 15 14 13 13 12 12 12 13 13 12 11 12 12 12 12 12 13 14 15 16 17 17 18 18 18 18 19 19 20 20 20 20 19 19
4 3 5 5 2 2 2 1 1 2 2 5 9 9 7 4 6 7 5 8 8 8 8 8 7 7 7 8 8 10 11 12 13 14 14 14 14 14 14 15 15 14 15 16 14 13 14 12 11 12 12 13 14 12 13 13 13 15 16 16 16 15 16 16 14 14 13 13 13 12 13 13 12 11 12 13 13 13 13 13 15 16 17 18 19 19 18 18 19 19 19 21 21 21 21 20 19
2 2 6 2 2 4 4 3 4 5 4 2 7 7 6 2 4 6 6 8 8 9 8 8 10 10 11 10 10 12 12 12 13 13 15 15 15 14 15 15 15 16 16 16 16 15 14 13 12 13 13 13 13 12 12 12 13 14 15 16 18 16 16 16 15 14 14 14 13 12 12 13 14 13 13 13 14 14 15 15 16 17 18 19 19 20 19 19 19 19 20 19 19 18 18 18 19
1 2 4 2 2 1 4 4 5 6 5 1 5 5 6 3 2 4 6 8 7 8 9 9 9 8 12 12 12 13 13 13 14 14 16 16 16 15 15 15 14 14 15 15 16 17 16 15 14 14 14 13 12 12 13 12 12 13 15 15 16 16 17 17 16 15 15 15 14 12 12 14 14 14 14 13 14 15 17 17 17 18 19 19 20 21 21 21 20 19 17 16 15 15 15 16 18
2 2 2 5 3 1 4 3 4 4 3 1 4 4 4 3 2 6 8 9 4 1 2 4 2 1 10 14 12 13 13 14 15 16 17 17 17 16 15 15 14 13 14 15 16 17 18 17 17 16 16 15 13 12 12 13 15 14 14 15 15 16 17 17 16 16 15 15 15 13 13 14 13 13 14 14 13 15 17 16 16 18 20 20 21 21 20 18 16 14 12 12 13 15 16 18 19
2 2 3 3 3 3 3 3 3 2 1 1 2 2 2 2 6 6 9 13 4 6 7 5 6 6 8 13 13 13 13 14 16 18 19 18 19 18 16 15 15 15 14 15 15 15 18 19 19 18 16 16 15 14 12 13 18 19 15 16 16 16 18 18 16 16 15 16 16 13 13 15 15 14 15 15 14 14 15 14 14 16 18 17 17 17 16 14 13 12 12 15 17 18 19 20 20
4 2 5 3 4 3 2 3 2 0 0 1 2 1 2 6 6 1 7 14 9 2 7 6 6 6 5 10 12 12 14 15 17 18 18 18 18 18 17 15 14 14 14 15 15 14 17 19 20 20 17 16 16 15 14 12 16 20 18 17 16 17 20 20 19 17 15 16 16 14 14 15 16 16 16 16 14 14 14 13 14 15 15 14 14 14 13 13 13 15 18 19 20 19 18 19 20
5 2 5 3 3 4 3 3 2 2 1 1 1 4 4 4 2 3 10 14 11 5 6 5 4 5 5 8 10 11 12 14 16 16 17 16 16 17 17 16 15 15 15 16 17 15 17 18 19 20 17 17 16 15 16 13 13 16 17 18 17 17 20 21 21 19 15 15 17 17 16 16 17 17 17 17 14 15 16 14 14 15 14 14 14 13 13 14 16 19 19 19 18 17 17 16 18
1 3 6 4 4 4 3 3 3 2 1 1 3 6 3 1 3 7 15 12 6 4 5 5 5 6 7 8 10 11 12 14 15 15 16 15 14 16 18 18 17 17 17 17 18 16 16 17 18 19 19 18 18 17 17 17 15 13 14 18 19 19 20 20 21 22 17 15 18 20 18 17 18 17 17 18 16 16 17 16 14 15 14 15 15 15 15 17 19 20 18 17 16 17 16 15 15
3 6 6 5 5 4 2 2 4 2 1 2 5 5 2 3 2 8 6 2 1 3 7 7 7 9 9 9 9 11 12 14 15 15 15 15 15 17 18 19 18 18 17 17 19 18 16 17 18 19 19 17 17 18 18 18 18 16 13 14 17 20 19 18 20 22 20 17 17 20 19 18 18 18 18 19 16 16 18 17 15 16 16 16 17 19 19 20 21 21 19 17 17 18 18 16 15
4 6 6 5 4 4 4 3 4 2 2 1 4 5 5 4 5 11 3 4 2 4 7 8 8 9 9 10 9 9 10 12 14 15 16 17 17 17 19 20 20 18 17 19 19 18 18 18 19 19 19 18 19 18 17 18 19 18 17 14 14 18 19 18 19 21 22 20 17 19 20 18 18 19 19 20 18 17 19 17 19 21 19 19 21 23 23 22 23 23 20 18 18 19 20 18 16
4 4 4 6 5 5 6 4 3 2 1 1 2 6 9 9 13 15 6 6 4 4 7 7 8 8 8 9 8 8 9 11 12 14 16 18 17 17 20 20 20 19 18 19 18 18 18 19 20 20 20 19 21 21 17 18 20 19 19 16 15 19 20 19 19 19 22 23 20 20 21 20 20 20 19 21 20 21 22 22 25 26 24 24 24 25 25 25 26 25 22 20 20 22 22 20 17
5 4 3 4 5 5 6 4 2 3 2 2 2 5 7 9 15 11 6 6 5 6 9 9 8 8 8 8 7 8 9 11 13 15 16 17 16 17 19 19 20 20 18 18 19 20 18 19 21 21 21 21 21 22 18 17 19 19 20 19 17 21 22 20 21 20 19 20 21 22 23 22 24 23 21 22 21 22 24 25 29 30 28 27 26 27 28 28 28 27 25 23 23 24 23 21 19
4 3 3 3 5 3 6 4 4 4 2 3 3 5 7 5 4 6 5 4 5 8 10 9 9 8 8 7 8 8 9 12 14 16 16 17 17 16 17 18 19 20 19 19 21 22 20 21 25 24 24 23 22 23 21 19 19 19 20 20 18 21 25 21 20 23 23 21 21 23 25 25 26 25 25 25 21 21 24 26 30 32 30 29 29 30 30 30 29 28 26 26 25 25 23 22 21
3 3 4 4 4 3 6 3 3 3 2 5 6 4 8 6 3 6 2 2 5 9 10 8 9 9 8 7 8 8 8 11 14 16 16 17 17 16 16 18 19 20 20 19 21 22 21 22 26 26 25 25 24 25 25 24 23 20 18 21 20 22 27 24 20 23 26 26 24 24 26 27 27 25 25 26 24 23 26 27 29 32 32 31 31 31 29 28 30 29 27 28 27 26 24 23 23
4 5 4 4 5 4 5 3 2 1 3 7 9 6 6 3 4 6 4 3 5 7 8 8 8 9 9 7 7 7 7 9 11 14 16 17 18 18 18 19 20 21 21 20 20 23 22 21 25 27 25 25 24 23 25 26 26 23 18 19 21 22 25 24 25 26 26 28 28 26 27 28 28 27 27 27 26 27 29 29 30 32 35 33 33 33 29 26 29 30 28 28 28 28 27 25 24
5 5 4 3 5 4 2 4 3 2 3 6 9 9 11 10 6 4 7 7 7 8 10 11 10 10 9 8 7 8 8 8 10 12 16 18 18 19 19 20 21 21 22 22 21 23 23 21 24 26 25 24 23 20 21 23 22 21 18 19 23 24 23 21 24 28 27 28 28 27 29 30 28 28 29 27 26 28 29 30 31 33 35 35 34 35 31 27 27 29 29 28 28 29 28 26 25
5 5 5 4 5 6 4 2 4 4 4 6 9 10 13 15 15 12 10 10 11 12 13 13 12 12 11 10 9 9 9 9 10 11 15 18 18 19 19 20 22 21 22 23 21 21 22 21 22 25 26 24 22 19 20 21 18 17 17 20 24 24 22 19 21 26 26 27 27 28 30 30 28 29 31 28 27 28 28 28 31 32 35 36 35 33 33 30 27 29 31 29 29 28 28 27 26
1 1 3 4 3 4 3 3 3 1 4 7 11 12 13 15 15 14 14 12 12 13 13 11 11 11 11 11 11 11 11 11 11 10 13 17 18 19 18 18 21 21 21 22 22 21 21 22 21 23 26 24 20 18 21 21 16 16 17 21 27 27 25 24 23 25 25 26 27 27 29 28 27 29 31 31 30 28 26 27 30 32 35 37 36 34 34 34 31 31 31 31 31 29 27 28 27
3 2 2 4 3 2 3 5 4 0 4 7 10 12 15 14 14 15 14 14 15 15 14 13 12 11 11 12 13 13 13 11 8 11 14 15 16 17 17 17 18 19 19 21 23 23 22 22 21 22 24 23 21 21 24 22 18 19 18 21 25 26 29 30 27 26 26 27 27 26 26 25 25 27 29 31 29 26 25 27 29 32 35 38 38 37 37 35 34 33 31 31 31 30 28 27 27
3 3 3 3 4 2 3 5 2 1 2 6 8 11 15 14 13 14 14 15 16 16 15 15 15 13 11 12 15 13 12 8 8 11 13 15 15 16 17 17 17 19 20 21 23 23 23 22 22 22 22 23 23 23 25 24 22 22 19 19 20 21 29 32 28 28 28 28 28 27 26 25 25 27 29 29 27 25 26 27 28 31 34 37 38 37 36 35 35 34 32 31 30 30 29 28 28
3 3 4 3 2 1 3 4 2 2 2 6 7 10 14 15 14 15 16 16 16 15 15 15 14 13 12 13 14 12 10 9 9 10 12 15 16 16 16 16 17 19 19 20 21 22 22 22 22 22 22 25 26 26 27 25 23 20 16 16 16 17 27 30 28 29 29 29 29 27 26 26 28 29 30 29 26 26 27 26 28 31 34 37 37 35 34 35 35 34 34 32 31 29 27 29 29
5 4 4 3 1 1 1 2 1 3 4 7 8 8 12 15 15 15 16 16 16 14 13 13 12 12 14 13 11 11 11 11 10 10 10 13 15 16 16 15 16 17 17 19 21 21 22 22 23 22 22 25 27 27 27 23 19 18 17 17 17 18 24 27 27 27 28 28 27 25 25 26 28 29 29 28 27 28 27 26 28 32 35 37 38 37 36 36 36 36 34 34 35 30 26 28 26
6 6 6 4 1 1 1 2 2 5 6 5 7 7 9 11 11 11 8 7 10 11 10 11 11 12 13 12 11 11 12 11 10 9 7 10 13 15 15 15 15 16 18 19 21 22 22 22 22 21 20 23 25 26 26 21 19 21 22 21 19 19 22 25 26 27 27 26 25 25 24 25 26 27 27 27 27 28 27 27 30 33 35 36 38 39 40 39 39 38 36 36 37 34 31 30 25
6 7 8 8 5 2 2 3 4 5 3 2 3 6 5 5 8 9 5 4 7 8 10 11 11 11 11 10 10 11 11 10 9 8 7 8 10 13 14 15 16 17 19 20 21 22 21 20 21 20 19 20 21 23 25 22 22 23 25 25 22 21 21 25 28 29 29 27 25 25 25 25 26 26 26 26 27 27 27 28 32 34 36 37 38 39 41 40 41 40 38 37 36 34 33 32 28
4 3 3 6 5 2 2 3 2 4 3 1 1 5 6 6 11 13 11 11 13 10 11 12 10 10 10 9 9 9 8 8 7 7 7 7 9 10 12 15 17 17 17 18 18 20 20 19 19 20 18 18 20 22 24 23 22 23 26 27 26 24 22 24 27 28 29 28 26 26 26 26 27 27 27 27 27 27 27 30 33 35 35 37 39 40 40 40 41 40 39 39 36 32 32 33 32
2 1 3 0 2 2 2 3 3 3 5 3 5 4 7 7 11 14 13 14 15 12 12 12 11 11 11 9 7 7 6 5 4 5 6 7 8 10 11 13 15 15 15 16 17 18 20 18 18 20 18 17 20 23 25 23 20 22 27 26 24 24 21 19 23 25 25 26 27 27 27 28 29 29 29 29 28 28 30 31 33 34 34 36 39 40 40 39 39 39 38 37 34 31 31 32 33
1 2 3 4 3 1 1 2 4 2 5 5 6 5 6 7 7 9 9 11 13 12 11 12 10 9 7 4 3 3 2 2 3 3 4 5 6 7 8 9 11 12 13 15 16 16 18 18 18 19 18 17 20 24 26 26 22 21 25 24 20 20 19 17 19 22 23 25 27 28 29 30 31 31 30 29 29 29 31 31 32 32 32 34 37 38 39 39 38 38 37 35 33 30 29 28 30
3 4 5 6 4 3 1 2 3 2 5 6 6 9 6 8 6 7 5 6 10 10 9 8 4 3 3 2 2 2 2 2 2 2 2 2 3 3 4 6 8 10 12 13 14 15 16 17 18 19 19 17 18 23 28 28 27 24 23 25 22 18 19 19 18 21 23 25 27 28 29 30 31 30 29 29 29 29 30 31 31 31 31 33 35 36 36 37 37 37 38 37 34 31 29 26 26
7 7 5 4 3 2 0 2 1 3 7 4 6 11 6 7 4 7 4 3 5 7 5 3 4 6 5 4 3 3 3 2 2 2 3 3 4 4 4 6 7 9 11 12 14 14 16 17 18 19 19 17 17 22 27 28 30 30 27 27 26 21 22 23 22 23 25 26 27 28 29 29 29 28 28 28 29 30 31 32 31 31 31 32 35 36 35 35 36 37 37 35 33 31 29 27 24
5 4 4 3 2 2 2 2 2 5 6 0 2 4 5 7 4 4 2 2 2 3 3 2 3 4 5 5 5 4 3 3 3 3 4 4 4 5 6 7 9 10 11 13 14 14 15 16 17 18 18 17 16 19 25 29 31 33 31 29 26 22 23 26 27 26 26 27 29 29 29 29 28 28 28 29 31 32 31 31 31 32 32 33 35 36 34 34 36 36 35 33 32 31 29 27 25
4 4 6 4 3 3 5 5 4 6 4 2 2 1 4 11 9 3 3 4 4 5 5 6 6 6 6 4 5 5 4 4 3 3 4 4 5 6 7 9 10 11 12 13 14 14 14 15 16 17 18 18 17 18 23 28 31 33 34 32 26 23 24 27 29 28 27 28 30 30 30 29 29 29 30 31 33 34 31 29 31 33 33 34 35 35 33 32 34 33 32 32 32 32 30 28 26
7 8 7 6 5 5 7 6 5 5 2 2 1 0 4 10 9 7 10 10 8 7 6 7 7 8 8 5 3 3 4 5 4 4 4 4 5 6 8 9 10 11 12 13 14 15 15 15 16 17 18 17 17 18 21 25 29 31 32 32 26 23 26 28 29 29 29 30 31 31 31 30 30 31 32 33 35 34 31 30 32 34 35 35 34 35 33 31 31 31 31 33 33 32 31 30 27
10 8 7 7 6 7 7 5 5 5 1 1 2 2 5 6 3 2 4 5 5 5 5 5 7 6 5 5 5 5 5 6 5 5 6 6 6 7 8 9 10 11 12 13 15 16 16 16 17 18 18 19 18 18 20 21 24 27 30 32 29 25 26 29 29 28 27 29 29 29 30 31 32 33 34 34 35 35 33 33 33 34 35 35 34 33 32 31 30 29 31 33 33 33 32 31 29
7 5 6 8 5 6 5 1 1 1 2 2 4 4 6 5 7 9 8 8 7 7 6 6 6 4 3 4 6 6 5 5 6 6 8 8 7 7 8 9 10 11 12 14 15 16 17 16 17 18 19 20 20 19 19 19 20 23 28 33 33 29 27 28 30 28 27 27 28 28 30 32 33 33 34 34 35 36 36 35 34 34 34 34 34 33 31 31 30 29 30 31 32 32 32 30 29
5 5 6 3 2 3 4 1 3 1 5 5 5 6 8 8 13 13 13 14 13 11 11 9 7 4 4 4 6 5 4 4 4 6 6 6 6 8 9 10 11 12 13 15 15 16 17 17 17 18 19 19 20 19 19 18 19 22 27 31 33 33 32 31 31 31 31 30 29 29 30 31 31 32 33 34 34 35 36 36 34 33 33 33 33 32 30 31 30 29 29 30 31 31 30 28 27
3 5 5 2 4 2 3 4 2 3 8 6 6 11 10 7 9 4 5 8 8 8 9 8 8 7 6 7 6 4 4 4 5 5 5 4 6 8 10 10 11 13 13 15 16 16 17 18 17 18 19 19 20 19 19 19 19 21 24 28 31 33 34 33 33 33 33 31 30 30 30 30 30 31 32 33 33 34 34 34 33 33 33 33 33 31 30 31 30 29 28 28 30 30 28 26 25
1 1 1 1 2 4 5 5 5 6 8 6 8 13 10 9 11 7 6 9 8 7 8 8 9 9 7 8 5 4 6 4 4 4 5 5 6 7 9 9 9 11 12 13 15 15 16 17 17 17 18 19 19 19 19 19 19 20 21 24 29 32 33 33 33 32 32 30 29 29 29 29 30 31 31 32 33 32 32 33 33 33 33 32 31 29 29 30 28 28 29 28 28 28 27 25 24
1 3 2 1 2 4 5 5 5 6 8 7 8 10 8 9 11 12 15 15 13 11 9 8 9 9 8 6 2 3 5 5 4 5 5 5 6 6 7 8 9 11 11 12 13 15 15 16 16 16 17 18 19 19 19 19 20 21 21 22 27 31 32 33 33 32 30 29 29 28 28 29 29 30 31 31 32 31 31 33 33 33 32 31 29 29 29 28 27 27 28 27 26 26 25 24 23
5 5 6 5 3 1 2 4 5 6 7 7 8 8 8 8 7 11 13 12 10 9 6 5 5 7 7 4 2 1 2 4 5 5 5 5 6 6 7 7 9 10 11 12 14 15 16 16 17 18 18 19 20 21 21 20 20 22 22 24 28 30 31 32 33 33 32 31 30 29 28 29 28 28 30 31 31 30 30 32 32 31 30 29 29 29 29 27 26 26 26 26 26 25 25 24 23
9 9 9 10 8 5 4 7 5 4 4 5 6 7 9 9 6 7 10 9 7 5 5 5 5 6 7 2 1 1 2 3 4 3 3 4 5 6 7 8 9 10 11 13 14 15 17 18 18 19 20 20 21 21 21 21 20 22 23 25 29 31 31 31 31 31 31 31 31 30 29 29 28 28 29 30 30 30 30 31 31 30 30 29 29 29 29 27 26 27 27 27 26 25 25 24 23
Wind_Direction
335 338 349 278 224 256 251 237 244 190 247 93 93 130 109 78 84 145 152 142 146 111 63 45 15 19 31 345 347 359 14 10 10 1 42 108 136 137 137 141 143 141 140 142 149 155 153 146 143 141 137 134 137 136 132 130 124 121 116 111 107 103 100 95 94 95 89 81 78 74 72 68 69 76 77 78 80 81 83 86 89 93 95 97 99 98 95 93 91 88 83 79 79 79 78 77 75
337 342 314 257 217 245 255 214 261 165 200 120 100 70 103 120 165 172 151 119 62 85 89 102 165 186 345 331 312 301 47 39 41 61 87 128 133 135 148 149 152 152 145 144 147 153 155 151 147 144 142 138 141 142 137 133 125 121 117 111 108 105 101 96 94 94 89 84 80 75 73 70 72 77 79 80 81 83 85 88 91 94 97 99 101 99 99 101 99 92 86 81 81 81 81 78 76
331 320 245 246 219 231 251 222 268 238 206 100 102 93 122 155 164 137 90 70 68 92 104 105 157 178 249 259 283 300 78 68 79 87 113 144 144 150 155 154 158 156 150 147 148 150 154 158 152 149 149 144 144 143 140 139 132 125 120 116 114 109 104 99 97 95 91 87 82 77 75 72 74 78 81 82 83 84 86 91 94 96 99 101 102 102 100 98 95 89 85 83 82 80 80 79 77
307 271 233 254 238 221 247 242 302 309 13 75 103 114 146 163 133 101 79 75 84 112 117 143 167 136 258 283 353 325 100 93 88 95 133 145 135 146 152 156 160 157 153 152 152 151 156 164 157 151 151 149 148 142 142 143 140 134 127 125 120 115 109 106 105 101 95 89 83 78 75 73 75 80 84 86 86 87 88 92 95 97 100 101 103 101 96 92 89 88 86 86 85 82 80 78 78
349 262 243 261 270 249 280 269 294 303 34 36 84 120 150 140 123 107 100 99 101 117 101 190 173 108 251 302 330 309 98 104 105 97 128 125 115 139 153 156 160 159 156 156 156 152 161 168 160 154 151 151 151 145 147 148 148 143 138 135 126 120 117 114 112 107 100 94 86 79 75 74 75 81 87 91 91 91 92 93 96 99 101 102 102 99 96 94 92 92 92 91 89 86 83 80 81
136 237 233 250 284 329 268 238 216 75 47 10 58 115 134 122 130 123 116 113 113 79 58 228 271 179 212 122 348 14 62 116 130 104 120 133 124 139 154 155 162 163 158 160 158 156 165 168 164 158 153 154 154 151 152 154 156 150 147 143 131 125 123 121 116 111 106 100 92 83 78 76 77 82 90 96 96 95 95 96 99 101 102 102 99 98 98 97 97 98 97 95 90 88 85 84 87
259 224 198 223 208 256 258 255 27 70 56 12 53 110 129 125 129 132 138 138 150 174 202 234 308 263 208 120 142 75 69 89 122 106 114 137 139 147 157 158 166 165 161 161 159 163 169 168 168 162 158 159 157 155 153 156 160 155 152 144 134 130 128 123 119 116 110 105 99 89 82 78 80 84 91 99 100 99 99 99 101 102 102 102 103 99 98 98 99 100 98 95 91 89 86 89 94
255 248 192 240 210 226 271 45 43 46 67 55 68 82 103 131 141 147 158 156 165 169 190 208 253 256 140 136 193 108 109 86 104 108 117 138 146 154 160 165 168 167 164 159 163 173 172 171 172 166 161 163 161 159 152 152 159 157 151 141 137 136 132 127 124 120 114 110 105 96 88 83 81 84 92 101 103 103 103 103 104 105 103 103 106 103 100 99 99 99 96 95 93 91 90 96 98
234 250 210 251 239 208 257 100 84 70 95 114 112 90 88 140 157 161 169 163 154 169 177 176 222 262 121 152 112 122 140 114 116 121 127 142 147 154 161 172 172 169 167 161 167 176 177 176 176 171 166 167 165 164 157 150 155 157 150 143 143 141 137 133 131 125 120 117 111 102 94 90 86 87 95 104 107 106 106 106 107 110 107 101 100 99 98 97 98 98 96 97 97 95 96 102 101
214 239 240 251 254 215 216 148 106 94 108 117 122 135 141 152 171 178 180 167 144 177 135 112 217 259 266 162 116 124 137 130 135 132 135 145 152 160 164 176 176 172 170 167 165 168 178 181 180 176 173 172 169 169 166 157 156 159 155 149 147 146 144 139 136 131 127 123 118 111 101 97 93 92 98 107 111 109 108 108 109 112 109 102 100 101 100 100 100 99 97 99 100 100 103 106 103
209 197 261 253 236 234 222 111 108 107 118 132 134 139 154 161 180 190 192 170 153 189 129 144 221 226 238 182 107 109 124 140 149 143 145 150 158 164 168 176 181 179 175 172 167 165 179 186 183 182 180 176 175 176 172 166 161 161 161 158 154 152 150 145 142 139 136 131 125 118 108 103 100 99 103 110 115 113 112 110 109 110 109 106 105 105 103 104 103 100 98 100 104 105 107 109 106
228 183 213 244 242 261 17 31 98 111 133 160 153 143 158 165 180 191 200 193 174 206 176 184 240 311 220 190 110 125 137 154 152 148 149 152 162 167 174 179 184 185 180 177 173 172 180 186 185 187 187 182 180 183 179 177 171 168 169 166 162 158 156 152 149 148 145 138 132 126 117 111 108 107 108 112 116 116 116 114 112 110 109 107 107 108 110 112 108 104 104 107 111 111 112 113 111
249 195 214 239 298 333 2 337 90 113 180 173 149 143 158 169 189 199 195 202 193 209 187 172 166 307 241 121 113 139 149 158 147 145 147 153 163 168 174 181 189 189 186 180 178 179 181 186 188 191 192 187 186 189 186 185 181 177 176 173 172 166 163 162 157 156 151 144 141 135 124 118 115 113 113 114 116 118 117 116 114 111 110 110 113 117 119 120 118 116 116 117 117 116 117 117 114
285 214 241 244 1 283 291 302 122 252 195 129 126 140 162 176 194 213 199 206 194 186 88 106 255 273 250 154 147 158 152 151 145 144 147 156 164 173 178 180 186 187 188 184 183 183 182 186 189 192 195 192 192 194 192 191 189 185 184 182 178 173 171 170 165 163 157 152 149 141 133 126 123 120 118 118 119 121 120 119 118 118 118 119 120 120 120 119 119 120 120 120 120 120 120 119 115
314 229 258 260 236 241 218 264 337 276 141 119 135 147 164 173 173 220 226 222 143 78 73 98 261 283 292 228 134 126 141 142 141 145 150 159 166 177 181 182 183 180 186 187 186 186 188 190 189 192 194 196 197 197 195 195 194 190 189 188 183 180 178 176 173 169 162 160 156 148 139 131 127 127 125 123 123 125 124 125 126 126 124 123 121 119 119 118 118 118 119 120 121 122 122 120 116
312 256 241 245 239 229 185 204 184 261 122 119 145 151 167 172 173 218 251 326 58 102 182 173 178 273 344 27 75 98 129 136 137 144 151 161 165 175 182 187 190 186 186 188 186 183 190 194 191 194 192 194 201 201 199 200 199 193 191 191 189 184 182 181 178 174 169 166 162 154 143 135 133 131 131 130 128 128 128 129 129 129 124 122 122 121 121 119 118 117 117 119 121 123 123 121 118
290 242 231 233 224 220 175 188 183 250 92 120 152 161 176 171 170 211 60 293 246 154 204 189 157 249 1 76 103 111 128 136 140 146 155 165 168 176 186 191 194 197 197 198 192 185 192 195 192 196 196 195 200 201 201 206 201 194 193 195 193 188 187 187 182 176 172 172 166 159 147 138 134 133 137 137 134 131 129 130 130 128 126 125 124 124 122 120 118 117 116 116 118 120 120 120 118
236 216 225 234 225 209 166 197 184 11 87 138 160 174 190 176 165 168 145 221 229 210 207 194 181 202 118 103 120 132 140 146 151 157 164 173 178 182 188 193 198 203 203 205 205 197 198 198 193 195 201 200 201 201 199 204 202 195 195 199 197 191 193 191 184 180 174 174 172 160 150 142 137 137 144 142 138 136 133 132 130 130 128 127 126 125 124 122 120 119 119 119 120 120 118 118 117
235 225 230 239 234 79 59 307 75 38 0 135 157 182 199 181 158 161 198 214 204 223 220 199 209 199 159 137 141 145 152 159 163 171 176 181 186 187 190 194 201 205 204 204 205 201 197 198 196 194 201 204 203 203 199 201 205 200 196 201 200 193 197 193 186 185 178 178 176 167 159 152 146 146 151 149 144 141 138 136 133 133 131 129 128 126 124 122 122 121 122 123 122 120 118 117 117
240 248 236 239 57 78 58 19 64 58 13 132 158 175 198 175 136 158 214 231 205 226 230 203 213 209 185 165 156 158 163 172 178 184 188 192 194 191 193 197 201 204 203 202 202 202 201 201 201 196 199 203 205 208 206 202 205 202 199 204 202 197 198 193 189 189 185 184 180 177 173 161 156 164 168 158 148 145 143 142 138 135 133 131 128 125 124 122 122 124 124 122 119 118 117 118 119
189 232 255 24 18 85 70 53 63 55 20 7 137 156 199 174 131 184 222 240 223 232 235 218 227 215 181 167 164 168 173 179 187 197 198 199 200 198 198 200 202 202 201 200 202 205 205 203 200 198 197 201 205 210 214 209 206 204 203 207 204 201 199 195 192 190 187 188 186 186 182 167 162 173 176 159 147 150 149 145 141 138 135 132 129 125 124 123 123 123 121 117 115 116 114 117 120
200 206 358 29 333 11 70 63 56 43 25 83 137 157 184 138 194 224 229 238 231 282 261 212 247 117 151 161 169 173 181 186 191 202 206 204 204 203 201 200 201 199 198 198 200 203 204 203 200 200 201 203 204 207 215 218 217 213 207 206 202 201 202 198 196 192 190 192 192 190 184 172 164 168 169 162 157 157 154 147 144 143 139 135 131 127 125 124 122 119 114 114 119 123 123 124 124
241 181 91 49 5 37 68 63 53 13 1 123 134 102 89 191 231 227 231 242 246 56 50 62 65 78 136 159 168 176 187 191 196 203 206 207 206 206 203 199 198 195 196 196 196 198 201 203 202 200 202 206 207 209 217 224 223 220 216 210 204 203 205 204 202 199 196 197 198 194 188 178 168 167 170 172 170 165 161 157 155 151 145 141 138 134 132 129 123 121 122 124 127 128 129 129 127
261 195 119 88 38 52 51 58 79 93 268 35 33 348 244 231 240 235 237 245 249 108 87 80 85 99 143 164 173 186 193 195 202 205 206 210 210 208 207 204 199 195 195 196 194 196 197 199 202 203 203 206 208 209 215 222 218 215 217 216 212 212 212 211 208 205 203 203 202 198 195 189 178 173 177 181 178 175 174 169 166 160 154 153 151 146 140 134 132 134 131 126 123 122 122 124 124
249 188 121 120 78 82 74 85 122 134 225 1 290 247 237 238 293 296 254 249 250 218 140 131 133 135 170 185 189 194 198 202 206 208 208 213 214 211 209 208 206 202 201 199 196 196 194 194 201 204 201 205 209 210 215 218 214 212 216 219 220 221 219 218 214 208 204 203 206 206 202 197 190 183 182 183 183 183 182 176 171 168 164 161 157 151 145 142 141 138 133 126 122 121 121 123 125
215 130 126 132 112 98 102 122 118 130 200 147 227 236 207 167 333 272 253 251 245 205 186 190 191 197 205 201 203 202 202 206 205 206 208 210 212 211 209 208 208 209 206 202 199 198 196 195 199 201 202 209 213 215 218 218 216 215 219 224 225 226 221 220 218 209 204 205 207 211 206 201 198 194 190 186 184 187 186 184 178 172 170 166 161 158 152 150 148 142 138 133 130 133 132 132 131
105 123 120 121 123 119 139 143 123 152 140 151 246 254 190 141 251 252 244 260 156 201 230 220 213 225 225 215 211 209 209 210 206 204 204 204 207 209 207 206 208 209 206 204 204 203 201 200 201 201 204 209 212 215 219 219 220 219 221 225 224 221 215 214 216 209 206 206 206 209 206 204 202 199 198 192 186 187 188 189 185 176 171 169 167 164 157 154 155 150 144 139 138 139 137 137 136
128 137 130 125 138 143 171 166 140 191 141 147 279 286 252 155 217 245 201 96 151 210 234 221 223 232 230 226 216 210 214 213 208 204 202 201 202 204 204 205 206 206 206 207 207 206 206 206 207 207 207 210 215 216 216 218 221 223 223 224 221 216 211 209 213 215 216 212 206 208 206 203 203 199 199 199 194 192 192 192 189 182 176 176 176 172 165 160 159 155 150 148 147 144 140 140 139
144 175 176 149 180 183 177 161 132 231 149 106 305 283 253 205 223 240 186 146 173 210 240 230 232 236 229 226 216 211 215 211 207 206 208 207 204 204 207 207 206 206 208 208 206 206 207 208 210 212 213 216 223 223 219 218 218 221 223 225 226 220 216 214 214 221 225 218 209 211 211 205 204 201 196 199 200 199 200 200 195 193 189 186 186 181 171 164 163 159 156 156 152 148 143 141 139
158 203 246 164 204 200 169 151 138 216 130 107 268 271 258 219 220 221 149 161 197 228 247 243 240 239 231 222 214 216 212 207 209 210 210 210 209 208 209 210 206 204 206 205 205 206 205 209 212 213 215 216 222 223 217 216 216 218 223 224 227 224 220 219 217 217 219 216 214 219 218 210 207 206 200 198 200 203 207 205 201 201 199 194 192 185 174 170 169 165 162 158 153 150 143 140 140
169 179 248 213 225 171 144 150 170 199 152 152 223 255 273 272 194 139 113 181 216 244 251 249 247 242 235 225 222 225 216 211 214 215 211 209 210 209 209 208 205 203 202 202 204 206 205 213 218 217 218 217 219 221 215 215 216 216 222 222 224 231 227 221 220 218 219 220 219 221 220 213 207 206 206 203 199 202 207 207 203 203 203 200 195 188 179 175 172 166 164 160 152 149 143 140 140
183 186 212 209 230 145 130 143 181 202 139 174 205 248 265 273 103 99 80 209 220 249 256 258 257 250 245 236 233 236 229 220 218 218 213 207 207 205 205 204 202 201 201 201 202 204 204 212 220 219 220 220 219 224 222 220 220 217 223 222 222 234 234 227 223 222 225 226 223 222 220 214 208 203 206 208 205 203 206 208 207 206 206 201 194 188 182 176 171 165 164 164 157 151 145 140 140
193 228 221 181 213 195 147 139 157 160 128 186 213 252 272 254 121 123 147 194 220 243 254 257 257 255 249 242 240 239 236 228 222 219 211 205 205 205 204 202 202 202 203 202 199 204 202 206 219 219 219 221 220 224 227 227 227 223 222 221 219 228 233 231 228 224 226 227 226 226 220 216 216 209 207 209 209 209 209 210 209 206 204 199 193 189 183 175 172 169 164 164 163 156 150 145 142
191 218 238 194 217 231 184 141 131 161 196 217 219 237 261 265 263 210 176 186 212 244 260 262 265 262 253 244 240 237 234 230 226 219 207 201 203 204 205 206 205 203 204 204 200 204 202 202 214 218 216 219 219 218 225 227 224 219 217 219 219 221 224 229 228 225 226 228 228 228 220 219 223 217 211 209 207 209 211 212 210 205 201 196 191 188 184 177 174 173 167 165 165 161 156 150 147
207 197 223 218 217 241 250 155 136 179 208 236 236 237 252 261 269 266 241 217 218 243 260 264 266 264 261 254 247 245 236 233 235 223 202 196 199 202 203 207 206 203 204 204 201 202 202 200 208 216 216 217 217 212 218 221 213 211 213 215 216 215 216 220 222 221 224 228 228 227 222 220 222 218 216 211 207 211 215 214 211 207 201 195 190 186 184 181 176 173 172 169 166 162 158 154 151
311 193 240 242 225 229 220 101 101 204 230 241 246 252 257 259 264 267 264 252 242 248 253 256 258 256 257 254 251 250 241 242 238 209 188 188 198 203 200 201 203 202 203 202 201 199 199 198 200 211 215 212 207 204 212 214 206 207 209 213 216 216 218 220 222 221 223 227 227 224 220 221 222 220 218 214 212 216 219 216 211 207 202 195 191 188 186 186 182 178 177 173 166 159 157 155 154
344 322 280 254 261 245 143 102 91 92 264 253 249 258 263 265 267 267 269 267 261 256 251 250 249 245 245 245 248 245 241 243 211 179 183 188 196 201 198 197 197 199 201 198 200 199 199 198 197 204 209 204 197 199 209 210 204 204 206 212 215 218 220 220 223 224 223 224 223 221 220 221 223 222 221 218 218 221 218 214 209 203 199 194 193 194 192 190 188 184 178 173 170 163 156 154 156
288 273 273 248 248 245 105 93 108 132 266 266 268 274 271 267 268 268 267 265 261 256 250 248 246 244 243 243 245 244 243 234 183 176 185 185 188 191 193 196 195 198 201 199 200 200 198 198 199 201 200 198 197 201 208 212 209 203 204 210 209 213 216 216 220 224 225 224 222 223 225 224 222 223 223 221 222 223 216 209 206 203 197 193 193 195 193 190 188 185 178 171 169 166 161 157 159
255 252 262 258 241 212 104 90 113 162 244 277 296 293 283 280 274 266 260 258 258 254 249 251 250 248 245 243 245 244 244 233 209 204 190 178 182 185 188 195 198 201 202 201 201 200 198 198 200 200 198 201 204 206 209 214 213 205 206 210 205 211 215 213 216 220 223 226 225 226 227 226 223 223 223 221 221 220 214 209 206 202 198 194 193 192 189 187 186 184 183 176 168 164 163 164 165
233 239 251 245 141 233 211 94 131 199 235 285 307 298 285 283 275 262 251 244 252 258 255 255 253 250 248 248 251 248 246 241 231 227 201 176 175 181 188 194 198 201 200 202 201 199 200 200 201 198 199 206 209 210 210 212 210 203 204 204 199 208 212 210 213 217 221 226 227 225 224 223 221 219 218 219 220 215 211 211 207 201 198 195 194 192 188 188 188 186 185 181 173 164 162 168 171
221 222 239 251 282 308 329 26 315 242 231 265 295 287 272 273 269 265 251 223 241 254 253 252 244 242 247 249 252 248 245 246 240 236 216 182 175 184 192 192 193 197 200 202 200 200 201 201 201 198 199 206 209 211 210 205 201 199 199 197 197 204 208 209 214 219 221 222 223 219 217 218 217 215 215 217 218 214 210 210 206 202 199 196 196 195 193 193 194 193 190 186 182 176 171 172 175
220 208 225 251 285 344 5 354 328 275 240 190 295 292 269 277 276 270 267 233 242 238 230 239 238 233 235 235 237 238 239 241 238 236 225 196 184 184 187 189 192 198 202 203 199 200 201 201 201 198 198 201 203 209 209 201 197 199 198 198 200 202 205 211 215 219 220 218 216 214 214 217 216 217 217 215 213 212 212 211 207 204 200 198 197 197 197 196 195 194 193 190 187 186 180 175 179
235 209 239 252 272 313 292 305 296 284 303 159 225 285 281 291 282 273 276 274 269 255 239 244 246 239 235 231 232 236 238 236 228 222 218 209 196 187 187 191 195 200 202 199 198 200 201 200 199 196 197 198 199 205 206 201 198 201 202 203 206 205 206 213 217 220 221 218 216 216 217 218 216 216 216 213 211 212 214 214 210 206 204 202 200 198 198 197 195 193 193 192 189 189 184 179 183
238 14 355 191 206 230 244 275 254 282 327 261 199 235 272 274 269 269 271 271 270 261 252 251 248 244 244 241 239 243 252 251 233 213 208 210 207 201 200 197 197 201 198 194 196 199 200 200 196 195 195 195 201 206 205 201 198 202 206 207 210 211 211 217 220 220 222 221 221 220 219 218 215 214 213 213 214 214 214 215 213 208 206 203 200 200 201 199 196 194 193 193 192 191 191 188 188
43 49 30 77 94 115 185 255 264 286 320 275 191 181 261 263 250 252 250 257 263 259 255 256 249 241 239 240 238 240 250 247 237 222 207 202 204 207 208 201 197 197 194 192 195 196 198 199 196 195 196 196 202 207 207 206 202 202 207 207 208 212 212 214 216 217 220 222 222 221 219 217 216 214 214 214 217 217 215 215 214 212 209 204 200 200 202 201 199 198 195 193 193 194 196 196 194
129 133 91 85 89 75 107 263 290 286 277 268 180 170 253 285 244 208 205 239 254 255 257 256 239 171 153 154 150 162 180 189 206 213 197 166 164 175 187 190 190 190 190 191 193 194 195 197 197 197 198 196 198 207 212 211 208 205 206 208 208 209 210 209 209 213 218 219 218 219 218 217 215 214 214 216 216 215 213 211 212 214 213 209 205 201 201 202 201 200 199 196 196 199 200 201 202
144 149 115 105 117 88 211 255 315 275 263 262 164 174 220 296 249 182 188 238 244 250 245 192 141 134 141 144 148 156 159 167 170 171 162 139 129 133 156 177 182 183 185 187 191 194 194 195 198 199 199 197 196 207 214 212 211 210 210 212 212 211 212 211 210 211 214 215 214 216 216 214 213 214 214 215 214 211 210 209 209 211 211 210 207 202 203 206 203 201 201 198 198 202 204 204 206
159 165 155 161 174 169 221 208 163 245 248 98 94 183 210 257 245 141 119 347 309 262 237 184 173 167 159 154 155 155 155 164 160 156 155 150 149 157 171 181 184 182 184 188 190 193 195 196 199 200 200 199 196 203 212 213 212 213 214 214 213 212 213 212 213 213 211 213 214 214 214 212 212 214 216 216 213 210 209 210 209 208 209 210 207 204 205 207 203 202 202 201 202 205 206 205 206
201 186 176 200 218 201 224 212 193 233 230 102 24 314 232 248 258 247 235 258 255 252 272 292 287 272 256 210 165 156 161 168 171 176 174 171 175 176 180 185 185 187 189 189 189 189 193 197 199 201 202 201 196 200 211 214 213 214 215 216 214 213 215 215 216 216 215 215 215 213 213 213 215 217 218 216 213 210 212 214 213 212 212 213 212 209 207 204 202 203 203 203 204 205 206 205 207
195 190 181 199 212 217 231 220 215 231 208 75 26 21 252 259 272 265 248 250 250 258 290 306 297 281 277 271 224 182 179 181 190 200 199 197 194 183 181 183 184 189 190 189 188 188 190 194 198 201 203 202 197 199 207 212 213 214 216 216 214 214 217 217 216 217 218 218 216 216 217 219 221 222 221 217 214 213 216 218 218 218 217 217 215 211 208 206 204 205 207 206 206 207 207 207 207
199 203 199 211 216 231 239 233 241 239 151 112 184 195 234 246 332 342 278 290 285 280 288 284 281 272 266 271 265 252 221 202 201 216 226 223 210 191 180 178 181 185 187 189 190 189 190 193 196 199 202 203 199 197 203 209 212 214 216 217 216 216 218 218 216 216 217 219 220 222 224 225 226 226 222 218 216 217 219 222 222 220 217 215 213 209 208 209 208 207 210 210 209 210 209 208 208
200 204 217 230 235 244 253 298 287 299 349 206 193 235 246 259 309 297 278 281 269 255 242 234 251 249 231 260 257 248 239 218 207 220 233 233 212 193 182 177 178 181 185 190 192 191 191 192 195 200 202 204 203 199 200 206 210 214 219 221 220 217 217 217 218 218 219 223 227 230 231 230 228 226 222 218 219 221 221 223 223 220 217 215 211 210 211 212 211 208 210 210 209 211 210 209 210
178 186 210 224 13 285 253 218 93 68 282 250 209 254 271 286 292 273 251 255 255 253 252 245 245 226 202 240 248 229 217 218 221 223 228 223 195 184 185 182 179 181 185 191 194 193 193 192 194 199 201 204 206 203 200 203 208 214 220 222 221 220 220 219 220 222 225 230 233 233 233 230 226 221 219 219 222 224 224 222 220 219 218 216 214 215 215 215 213 209 210 210 209 210 210 209 212
160 192 195 114 44 335 254 247 231 223 251 252 228 250 265 275 279 258 207 237 241 246 258 258 256 244 221 232 239 201 173 206 235 223 209 201 188 184 187 186 184 185 186 191 195 194 195 195 196 197 199 201 204 204 202 203 206 212 217 219 220 221 223 224 225 227 230 232 233 232 231 229 224 220 220 222 224 225 224 221 218 216 216 217 217 218 217 215 213 209 209 210 210 209 209 209 212
34 286 193 126 222 222 210 225 239 237 245 255 246 251 255 246 254 267 262 259 260 261 264 263 262 257 248 250 243 161 156 194 231 218 196 185 188 188 182 180 183 187 188 191 194 194 196 198 198 198 199 200 202 204 203 204 205 211 216 220 220 222 224 227 229 230 231 232 233 233 232 230 226 224 225 225 225 226 223 219 217 215 216 217 217 217 216 214 210 208 208 209 209 209 208 208 211
22 308 239 199 252 234 214 211 219 237 246 254 255 255 249 239 248 262 267 269 274 276 277 274 273 269 264 268 277 124 150 187 215 216 196 173 177 178 172 178 182 184 188 190 192 195 197 198 198 198 200 201 203 204 203 203 205 210 216 217 218 221 225 228 230 231 231 232 233 234 234 231 228 230 231 228 226 227 224 219 216 216 216 216 215 215 214 211 207 207 208 207 207 207 207 208 209
181 219 211 195 202 249 281 244 222 234 245 248 255 258 257 255 254 259 267 276 280 282 287 280 279 279 273 281 346 45 165 207 219 211 184 158 154 155 161 175 178 180 187 189 193 198 197 198 199 197 198 200 203 205 204 204 204 207 212 215 217 220 223 226 229 231 230 231 234 234 233 232 232 233 232 229 227 227 224 219 215 215 216 215 214 214 213 210 205 204 205 206 207 206 206 206 205
189 200 203 205 200 185 232 237 213 218 244 252 261 267 269 267 264 267 273 280 287 300 313 296 285 280 278 294 45 279 261 245 230 197 160 141 137 146 162 174 174 180 191 195 198 199 199 200 199 196 196 201 204 206 206 206 205 206 210 216 219 220 221 223 225 226 226 227 231 233 232 232 234 234 232 229 227 226 223 219 215 214 215 214 213 213 212 208 204 205 206 206 206 204 202 200 197